STARLINK-36676, 67912

Orbit data source: Space-Track

STARLINK-36676, 67912 is a payload satellite owned by SpaceX/Seattle (US) in LEO that was launched on Sun, 22 Feb 2026 UTC via an FALCON 9 launch vehicle from the Air Force Eastern Test Range (AFETR). Payload-class satellites include a variety of spacecraft equipped with specific instruments for various scientific and technological missions. These include communications satellites like Starlink; space stations such as the ISS; scientific satellites like the Hubble; Earth observation satellites from companies like Planet Labs, Umbra, and HawkEye 360; GPS; miniature CubeSats for education and research; and military/defense satellites.

Loading next visibility...
Identifier
67912, 2026-036J
Orbit
LEO
Country
Flag of USUS
Related business
Manufacturer
SpaceX/Seattle
Mission
Operational spacecraft
Bus & Motor
STARLINK V2MO, Unknown motor
Mass
575 kg wet, ~530 kg dry
Launch date (UTC)
2026-02-22 (3 weeks ago)
Launch vehicle
FALCON 9
Launch site
Air Force Eastern Test Range (AFETR)
Object type
Payload
Rocket body
Debris
Shape & HBR
Unknown
Radar Cross Section
RCS unknown

Expand to show TLE details & history
Last TLE update: 13 hours ago

TLE from 13 hours ago
0 STARLINK-36676
1 67912U 26036J   26071.80059439 -.00747719  00000-0 -45553-2 0  9997
2 67912  42.9986 230.6763 0001725 304.9770  55.0938 15.78468225  4166
Epoch: 2026-03-12T19:12Z
TLE epoch observation values (Epoch: 2026-03-12T19:12:51.355Z)
Latitude
-0.00003°
Longitude
132.01701°
Altitude
333.888 km
Speed
7.711 km/s
True Right ascension
15h 22m 42s
True Declination
0° 00' 00"
Sunlit
Object was in full shadow at epoch
Visualization orbit readout
Latitude
Unknown
Longitude
Unknown
Altitude
Unknown
Speed
Unknown
Apparent Right ascension
Unknown
Apparent Declination
Unknown
Sunlit
N/A
Visualization observer readout
Local Sidereal Time
12:26:37
Azimuth
Unknown
Elevation
Unknown
Doppler factor
Unknown
Orbital elements
Apogee altitude
337.927 km
Perigee altitude
335.61 km
Semi-major axis
6,714.905 km
Eccentricity
0.00017
Inclination
42.9986°
RAAN
230.6763°
Arg. of periapsis
304.977°
True anomaly
55.11001°
Mean anomaly
55.0938°
Eccentric anomaly
55.10191°
Mean motion
3.94442 °/min
Orbital period
91.27 mins
BSTAR
-0.0045553
Loading maneuver chart data...
Computing Atmospheric mass density...
Loading historical data...
Loading historical data...
Loading historical data...
Loading historical data...
Loading historical data...
Loading historical data...
Loading historical data...

Documentation

Showing up to 5 results
|